Location: Unspecified
(58.7730°N, 5.8460°E)
Time: 00:20:46
(UTC+02:00)

Resurs 1-4 Rocket - Visible Passes

Search period start: 02 September 2015 00:00
Search period end: 12 September 2015 00:00
Orbit: 799 x 815 km, 98.4° (Epoch: 01 September)

Date Brightness Start Highest point End Pass type
(mag) Time Alt. Az. Time Alt. Az. Time Alt. Az.
02 Sep 4.4 03:45:44 10° NE 03:49:30 20° E 03:53:23 10° SE visible
02 Sep 2.2 05:24:54 10° NNE 05:30:14 84° ESE 05:35:33 10° SSW visible
03 Sep 4.7 03:22:00 10° NE 03:24:33 14° E 03:27:18 10° ESE visible
03 Sep 2.7 05:00:25 10° NNE 05:05:39 59° ESE 05:10:54 10° S visible
04 Sep 3.3 04:36:00 10° NNE 04:40:59 41° E 04:46:01 10° SSE visible
05 Sep 3.8 04:11:41 10° NNE 04:16:15 29° E 04:20:52 10° SSE visible
05 Sep 2.2 05:51:19 10° NNE 05:56:35 68° WNW 06:01:51 10° SSW visible
06 Sep 4.3 03:47:32 10° NE 03:51:24 21° E 03:55:23 10° SE visible
06 Sep 2.2 05:26:46 10° NNE 05:32:06 87° ESE 05:37:26 10° SSW visible
07 Sep 4.6 03:23:45 10° NE 03:26:28 14° E 03:29:22 10° ESE visible
07 Sep 2.6 05:02:16 10° NNE 05:07:32 62° ESE 05:12:48 10° S visible
08 Sep 3.2 04:37:50 10° NNE 04:42:53 43° E 04:47:56 10° S visible
09 Sep 3.8 04:13:31 10° NNE 04:18:09 30° E 04:22:50 10° SSE visible
09 Sep 2.2 05:53:12 10° NNE 05:58:28 66° WNW 06:03:43 10° SSW visible
10 Sep 4.3 03:49:21 10° NE 03:53:19 21° E 03:57:22 10° SE visible
10 Sep 2.1 05:28:38 10° NNE 05:33:59 89° ESE 05:39:19 10° SSW visible
11 Sep 4.6 03:25:31 10° NE 03:28:23 15° E 03:31:26 10° ESE visible
11 Sep 2.5 05:04:08 10° NNE 05:09:25 64° ESE 05:14:42 10° S visible
